Probability
0 0 1 1 1 0 0 0 0 0 0 0 0 0 1 1 1 0 0 0 0 1 2 7 15 20 19 16 15 14 12 10 9 7 7 7 5 3 3 4 4 3 3 3 3 3 2 1 0
0 1 2 1 0 0 0 0 0 0 0 0 0 1 2 2 1 0 0 0 0 0 1 6 15 20 19 17 15 13 11 10 9 7 7 7 7 6 4 5 4 4 3 3 3 3 3 2 1
1 2 2 1 0 0 0 0 0 0 0 0 0 1 2 2 1 0 0 0 0 1 1 6 14 19 18 18 16 13 11 10 9 7 6 7 8 8 6 6 6 5 4 3 3 3 3 3 1
2 2 2 1 0 0 0 0 0 0 0 0 0 1 1 1 0 0 0 0 1 1 2 5 11 16 17 18 17 15 12 11 9 8 7 7 8 9 8 7 7 6 5 4 3 3 4 3 1
3 2 1 0 0 0 0 0 0 0 0 0 1 2 2 1 0 0 0 1 2 2 1 3 7 11 15 17 17 16 14 13 11 9 8 7 8 9 9 9 7 6 6 5 4 3 3 3 1
3 2 1 0 0 0 0 0 0 0 0 0 1 2 2 1 0 0 1 2 3 2 1 1 3 7 11 14 15 15 16 16 14 12 10 9 9 8 10 10 8 7 6 6 4 3 3 2 1
2 1 0 0 0 0 0 0 0 0 0 0 0 1 2 2 2 1 2 3 3 3 1 1 2 4 6 9 11 12 14 16 17 16 14 12 11 10 10 11 10 8 7 6 4 3 3 2 1
2 1 0 0 0 0 0 0 0 0 0 0 0 1 2 3 5 4 4 5 5 3 3 2 2 2 3 5 7 9 11 14 17 17 16 14 13 12 12 12 12 11 8 6 4 3 3 2 1
1 0 0 0 0 0 0 0 0 0 0 0 0 0 1 3 6 7 7 8 8 6 4 4 4 4 4 4 5 6 7 10 14 15 15 15 15 14 12 11 11 11 8 6 6 5 4 2 1
0 0 0 0 0 0 0 0 0 0 0 0 0 0 1 3 6 8 8 9 9 7 6 7 8 8 7 6 5 4 4 6 9 12 13 14 15 14 12 9 9 9 7 6 7 6 5 2 1
0 0 0 0 0 0 0 0 0 0 0 0 0 0 1 3 5 6 7 8 8 7 7 8 10 11 11 9 7 6 6 6 7 9 12 13 14 14 13 11 9 7 7 6 6 6 5 2 1
0 0 0 0 0 0 0 0 0 0 0 0 0 0 1 3 4 5 6 6 6 7 6 6 9 11 13 12 10 9 10 10 9 10 11 12 14 14 13 12 9 7 6 6 6 6 5 4 2
0 0 0 0 0 0 0 0 0 0 0 0 0 0 1 2 4 4 5 5 6 7 7 6 7 10 13 14 13 13 14 13 11 10 10 11 12 12 11 10 8 6 5 6 6 7 6 5 4
0 0 0 0 0 0 0 0 0 0 0 0 0 0 1 2 3 3 4 4 4 6 8 9 9 11 14 15 14 14 15 13 11 11 10 10 10 10 9 8 8 6 6 6 6 7 7 7 6
0 0 0 0 0 0 0 0 0 0 0 0 0 0 0 1 1 1 1 2 2 4 6 8 9 10 12 13 13 13 12 10 10 11 10 9 9 9 8 8 7 7 6 6 6 7 8 9 8
0 0 0 0 0 0 0 0 0 0 0 0 0 0 0 0 0 0 0 0 1 1 2 4 6 8 9 10 11 11 9 8 8 10 10 8 8 8 7 7 7 7 7 6 6 7 9 10 10
0 0 0 0 0 0 0 0 0 0 0 0 0 0 0 0 0 0 0 0 0 0 0 1 3 5 6 7 7 8 7 6 7 9 9 7 6 5 5 6 7 7 7 7 6 7 8 9 10
0 0 0 0 0 0 0 0 0 0 0 0 0 0 0 0 0 0 0 0 0 0 0 1 2 3 4 5 5 5 5 4 5 6 7 5 3 3 3 4 5 6 7 7 6 6 7 9 9
0 0 0 0 0 0 0 0 0 0 0 0 0 0 0 0 0 0 0 0 0 0 0 0 1 2 3 4 4 4 3 2 2 3 3 3 2 2 3 3 4 4 5 6 6 5 6 7 8
0 0 0 0 0 0 0 0 0 0 0 0 0 0 0 0 0 0 0 0 0 0 0 0 0 1 1 2 3 3 2 1 0 0 0 1 2 3 3 3 3 3 4 4 4 4 4 5 6
0 0 0 0 0 0 0 0 0 0 0 0 0 0 0 0 0 0 0 0 0 0 0 0 0 0 0 1 2 2 1 0 0 0 0 0 1 2 3 3 3 3 3 3 3 2 2 3 4
0 0 0 0 0 0 0 0 0 0 0 0 0 0 0 0 0 0 0 0 0 0 0 0 1 1 0 0 1 1 1 0 0 0 0 0 0 1 1 2 3 3 3 3 3 1 1 1 2
0 0 0 0 0 0 0 0 0 0 0 0 0 0 0 0 0 0 0 0 0 0 0 1 2 1 0 0 0 0 0 0 0 0 0 0 0 0 0 1 1 2 2 2 3 2 1 0 1
0 0 0 0 0 0 0 0 0 0 0 0 0 0 0 0 0 0 0 0 0 0 0 1 2 1 0 0 0 0 0 0 1 1 0 0 0 0 0 0 0 0 0 1 2 2 1 0 0
0 0 0 0 0 0 0 0 0 0 0 0 0 0 0 0 0 0 0 0 0 0 0 1 1 0 0 0 0 0 0 0 1 1 0 0 0 0 0 0 0 0 0 0 1 2 1 0 0
0 0 0 0 0 0 0 0 0 0 0 0 0 0 0 0 0 0 0 0 0 0 0 0 0 0 0 0 0 0 0 0 1 1 0 0 0 0 0 0 0 0 0 0 1 2 1 0 0
0 0 0 0 0 0 0 0 0 0 0 0 0 0 0 0 0 0 0 0 0 0 0 0 0 0 0 0 0 0 0 0 0 0 0 0 0 0 0 0 0 0 0 1 2 2 1 0 0
0 0 0 0 0 0 0 0 0 0 0 0 0 0 0 0 0 0 0 0 0 0 0 0 0 0 0 0 0 0 0 0 0 0 0 0 0 0 0 0 0 0 0 1 2 2 1 0 0
0 0 0 0 0 0 0 0 0 0 0 0 0 0 0 0 0 0 0 0 0 0 0 0 0 0 0 0 0 0 0 0 0 0 0 0 0 0 0 0 0 0 0 0 1 1 1 0 0
0 0 0 0 0 0 0 0 0 0 0 0 0 0 0 0 0 0 0 0 0 0 0 0 0 0 0 0 0 0 0 0 0 0 0 0 0 0 0 0 0 0 0 0 0 1 0 0 0
Wind_Speed
5 4 3 3 4 5 8 5 3 5 4 2 1 2 2 1 2 3 4 4 4 6 6 8 8 9 9 9 9 9 9 9 9 9 9 10 10 10 10 10 10 10 10 10 10 10 11 11 11
3 3 3 4 6 8 7 6 7 5 3 3 2 2 2 2 4 4 3 3 4 6 6 6 8 8 9 9 9 9 9 9 9 9 9 9 10 10 10 10 10 10 10 10 10 10 10 10 10
2 3 4 4 7 9 5 4 5 3 3 3 3 1 0 2 3 3 3 4 5 6 6 6 7 8 8 9 9 9 9 9 9 9 9 9 10 10 10 10 10 9 9 9 9 9 10 9 9
3 3 3 6 11 8 4 3 4 5 4 2 3 3 3 3 2 2 4 5 6 6 6 6 6 6 8 8 8 8 9 9 9 9 9 9 9 9 9 9 9 9 9 9 9 9 9 9 9
2 4 6 9 11 6 4 2 4 6 5 4 4 3 3 3 3 3 4 5 5 5 5 6 5 5 6 8 8 8 8 9 9 9 9 9 9 9 9 9 9 9 9 9 9 9 9 8 8
4 5 8 11 11 7 5 5 6 7 5 3 4 3 3 3 3 3 4 5 5 5 4 5 5 4 5 6 7 7 8 8 8 8 8 9 9 9 9 9 8 9 9 9 9 9 8 8 8
5 5 8 10 9 8 5 5 7 7 7 4 3 4 4 3 2 3 4 4 4 4 4 4 4 4 4 4 5 5 6 7 8 8 8 7 8 9 9 9 8 8 9 8 8 8 8 8 7
3 4 7 8 9 8 4 4 3 5 4 1 3 4 3 3 3 3 4 3 3 3 3 3 3 4 4 4 3 3 5 6 7 8 7 7 8 8 8 9 8 8 8 8 8 8 8 7 7
4 6 8 8 7 5 4 5 3 2 2 2 2 2 3 3 4 5 4 3 3 3 3 2 2 3 3 3 3 3 4 5 6 7 7 7 7 8 7 7 7 7 8 8 8 7 7 7 7
5 8 7 3 3 2 4 4 3 4 5 5 4 2 1 4 5 6 5 5 5 4 4 3 3 3 2 2 3 3 3 4 6 6 7 6 5 5 5 6 6 7 7 7 7 7 7 5 5
4 6 3 2 1 2 3 2 2 6 6 6 5 4 3 4 5 6 6 6 5 4 4 3 4 4 3 2 2 2 2 3 4 6 6 5 4 4 4 4 5 6 6 6 6 6 4 4 3
4 3 2 2 1 2 3 3 3 5 4 2 3 2 3 5 5 6 6 5 4 4 4 3 4 4 4 3 2 2 2 2 3 4 6 5 3 4 4 3 4 4 4 4 5 4 5 5 4
5 3 2 2 1 2 3 4 4 5 4 2 2 2 3 4 4 3 4 4 4 4 4 4 3 4 4 3 2 2 2 2 3 3 4 5 4 4 4 3 3 4 4 4 4 5 5 5 5
3 3 2 2 2 2 4 5 5 6 3 3 3 3 3 3 3 3 3 3 3 3 3 2 3 3 3 3 3 2 2 2 3 3 4 5 4 4 4 4 4 4 4 4 5 5 5 5 4
3 3 3 3 3 2 3 7 7 5 3 3 3 3 2 2 2 3 3 3 3 3 2 2 2 3 3 3 3 2 2 2 2 3 4 4 4 5 5 4 4 4 4 5 4 5 4 4 4
3 5 5 3 2 2 6 9 3 1 3 4 3 2 2 2 2 2 2 3 3 2 2 2 2 2 3 3 2 2 2 2 2 2 3 4 4 5 5 5 5 5 5 5 5 5 5 4 4
5 6 6 4 2 2 7 8 2 1 3 4 4 3 3 2 2 2 2 2 2 2 2 2 2 2 2 2 2 2 1 2 2 2 2 3 4 4 4 4 5 5 5 5 5 5 5 5 4
6 6 5 6 1 4 8 9 6 3 4 4 4 3 3 3 3 3 3 2 2 2 1 1 1 2 3 2 2 1 2 2 2 2 2 3 3 4 4 3 5 5 5 5 5 5 5 4 4
4 5 6 4 2 5 8 10 8 5 5 5 4 4 3 3 2 2 2 2 1 1 1 1 1 2 2 2 2 2 2 2 2 2 2 3 4 4 4 4 4 4 5 6 7 5 6 5 4
4 6 6 3 2 5 7 11 8 6 6 6 5 4 3 3 2 2 2 1 1 1 1 1 1 2 2 2 2 2 2 2 2 2 2 3 3 4 4 5 4 5 4 6 7 6 5 4 5
6 7 6 4 3 4 6 8 7 5 5 4 4 4 4 4 3 3 2 2 2 2 2 2 3 2 2 3 2 1 1 1 2 2 2 3 4 4 5 5 5 5 5 5 6 7 7 5 5
6 4 5 4 5 4 3 7 6 5 6 5 5 4 4 4 4 3 3 3 3 3 3 3 3 2 2 3 4 4 3 3 3 3 3 3 3 4 4 5 5 6 5 6 6 6 6 6 5
2 2 4 5 5 5 4 6 6 4 7 6 5 5 4 4 4 4 3 3 3 3 3 3 3 2 2 3 4 4 4 4 3 3 3 3 3 3 4 4 5 5 5 5 6 6 6 5 5
3 3 2 2 4 7 6 8 7 5 6 5 4 3 3 3 3 3 3 3 3 3 3 3 2 2 2 2 3 4 5 5 4 4 4 3 2 2 3 4 4 5 5 5 5 6 7 6 6
4 4 3 4 5 6 3 7 8 2 3 4 4 4 3 3 3 3 4 4 4 4 3 3 3 3 3 3 3 3 4 5 5 5 4 3 3 2 3 3 4 4 5 5 5 6 6 7 7
7 6 4 5 5 3 4 8 4 1 2 3 4 4 3 3 3 4 4 4 4 4 4 3 3 3 3 3 3 3 3 3 3 4 4 4 3 3 4 4 4 5 5 5 6 5 6 6 7
6 5 2 1 1 5 6 6 6 3 3 3 3 3 3 4 4 4 4 4 4 4 4 4 3 3 3 3 3 3 3 3 3 3 4 3 3 3 4 4 4 5 5 5 6 5 6 6 6
2 4 4 4 5 7 6 7 5 4 5 3 3 3 4 3 4 4 4 4 4 4 4 4 3 3 3 3 3 3 3 3 3 3 4 4 4 4 4 5 5 5 5 5 5 5 6 6 5
5 5 4 4 4 6 6 4 1 3 3 3 3 3 3 3 4 4 5 4 4 4 4 4 3 4 3 3 3 3 3 3 3 3 4 4 4 4 5 5 5 5 5 5 5 5 5 6 6
5 5 6 5 5 5 6 5 3 2 2 2 3 3 3 4 4 4 4 4 4 4 4 4 4 4 4 3 3 3 3 3 3 4 4 4 4 4 5 5 5 5 5 6 6 6 6 6 7
Wind_Direction
319 299 250 228 215 224 233 211 205 176 178 146 124 211 221 244 322 52 73 131 127 140 146 154 156 153 154 150 144 141 140 143 143 141 139 139 138 136 132 126 123 121 120 115 110 105 103 100 96
307 273 223 223 229 223 218 205 200 188 132 134 162 201 185 117 43 70 111 133 148 145 149 150 147 152 153 151 150 146 144 144 143 141 141 140 143 141 136 132 128 124 121 117 113 109 106 104 100
262 263 225 212 226 232 214 181 188 158 147 180 161 176 323 75 78 94 94 147 152 144 147 138 137 148 149 150 151 150 149 147 147 146 144 143 140 139 139 136 132 128 124 120 117 113 110 107 105
226 199 213 227 226 230 241 160 163 170 165 186 191 154 119 52 34 70 117 150 150 146 145 133 131 138 148 151 153 152 151 152 152 150 149 146 143 139 137 136 134 131 128 125 120 115 111 111 110
228 213 210 224 232 223 222 227 201 203 182 174 202 182 137 95 52 99 135 147 146 143 142 137 129 127 140 150 154 157 157 158 158 155 153 151 147 143 140 138 138 134 132 130 127 124 120 119 117
196 214 223 226 223 217 213 216 215 220 209 190 205 198 140 102 97 119 140 153 150 144 143 136 125 128 126 148 154 158 160 162 162 159 157 155 154 151 148 144 143 142 139 137 134 130 127 124 122
217 213 231 234 229 222 211 205 220 222 217 212 228 209 159 137 97 128 141 147 145 145 150 148 151 143 134 132 153 161 164 165 162 160 158 156 158 158 156 152 149 149 146 142 141 139 134 128 123
248 219 221 225 228 226 192 192 221 236 223 180 235 223 179 132 122 133 135 146 148 153 162 166 166 165 162 158 133 161 170 169 167 162 158 155 158 160 159 160 154 154 152 149 148 142 137 130 123
221 221 223 217 221 212 173 194 191 239 213 195 232 321 23 108 146 150 152 165 170 173 177 177 188 187 180 172 148 157 175 174 176 169 157 164 173 172 170 165 156 159 156 155 152 146 138 133 128
208 222 226 228 230 201 180 208 193 194 208 212 206 201 113 152 169 175 182 189 192 193 191 191 199 199 190 181 171 180 192 190 192 185 176 180 178 174 170 151 155 157 156 159 155 145 150 167 157
204 228 213 209 228 236 209 216 226 219 228 231 232 219 187 180 187 195 201 204 205 204 202 201 205 203 198 193 190 183 198 201 199 194 185 182 178 176 175 168 166 171 171 173 162 171 181 184 173
196 217 228 226 242 242 238 228 232 244 255 316 293 234 185 197 204 210 214 218 216 214 218 215 211 209 209 201 198 194 204 219 202 196 193 187 183 184 180 184 184 186 183 184 185 189 186 188 187
209 201 215 243 239 260 248 244 259 258 258 275 278 220 207 212 221 230 237 231 228 224 224 221 218 216 211 203 206 198 205 226 213 203 200 196 191 188 182 182 186 189 188 190 194 193 189 193 195
185 190 215 258 250 262 247 255 249 249 253 244 244 238 237 233 234 240 249 248 241 237 232 223 220 223 213 205 204 206 210 224 221 207 204 203 200 193 187 191 193 193 197 199 201 198 195 199 200
165 195 228 234 236 229 241 247 230 240 242 242 242 244 254 263 260 259 262 264 259 252 239 223 210 212 215 215 213 215 215 225 225 213 207 204 205 199 192 195 198 196 194 200 201 199 200 202 201
180 208 225 198 225 221 232 250 211 210 244 254 253 253 264 287 286 289 291 284 281 273 259 230 209 209 213 218 215 214 217 225 223 219 208 204 205 207 198 197 200 198 192 196 198 197 195 199 206
195 220 231 214 200 228 232 256 231 265 263 259 255 255 259 275 296 308 306 301 296 282 262 236 216 211 208 216 214 202 206 223 219 219 213 213 206 202 207 207 201 195 193 195 197 202 199 201 206
207 224 229 229 198 246 243 256 261 267 264 262 267 263 259 265 285 307 311 309 308 291 270 257 236 229 214 200 207 204 206 223 224 222 216 216 213 205 205 209 207 200 196 198 198 200 203 206 200
219 223 238 249 283 263 256 266 267 262 262 262 263 260 257 259 283 304 306 302 310 325 290 274 276 266 230 201 204 216 225 225 223 226 227 220 216 211 213 208 204 206 206 205 202 201 201 202 191
217 226 241 258 278 272 273 272 266 251 252 257 258 259 263 266 259 281 287 281 296 299 300 283 264 257 251 241 229 232 233 230 229 227 222 222 221 216 216 211 207 207 212 209 204 201 200 204 200
229 239 246 262 287 253 279 262 233 227 229 239 250 257 261 262 270 277 281 279 282 287 290 286 269 254 253 245 229 211 213 216 218 221 226 229 229 229 226 220 216 211 212 214 208 204 205 205 206
234 229 241 247 253 249 264 273 232 214 224 236 243 248 254 259 269 282 291 294 291 288 285 274 271 270 258 237 224 221 224 230 237 234 236 239 236 237 236 230 224 221 217 218 217 210 209 207 208
230 196 227 241 244 259 229 253 251 205 234 240 239 244 250 261 270 280 287 291 293 294 289 278 270 266 255 239 233 226 231 238 239 235 239 241 239 239 244 237 231 227 225 223 221 216 213 212 214
153 142 155 200 221 244 226 239 259 211 231 235 234 247 257 270 284 293 301 303 304 306 301 291 279 277 271 253 243 234 230 229 228 231 238 242 243 239 243 244 236 230 227 224 222 218 217 218 220
191 193 207 212 221 240 184 236 254 233 223 241 253 261 274 281 290 300 308 310 309 308 305 295 289 289 281 263 253 249 245 236 233 233 233 238 247 251 248 248 242 234 231 228 224 222 222 219 222
204 220 228 238 245 247 202 239 253 211 249 258 260 262 270 288 297 300 307 309 306 304 300 298 294 291 288 274 268 264 262 249 244 242 240 241 247 251 252 249 247 242 237 233 228 226 226 223 223
187 212 265 250 272 263 237 249 260 219 232 238 248 265 280 296 303 307 314 314 309 305 301 296 291 290 289 283 276 267 264 257 253 252 246 247 251 253 252 247 248 247 241 237 232 229 227 227 225
249 171 182 206 233 251 250 246 241 205 217 219 240 272 299 306 309 313 319 321 319 316 311 305 296 293 292 286 279 275 267 269 264 260 253 250 253 254 254 247 244 245 243 241 236 235 229 229 229
180 185 206 208 246 252 261 249 173 213 213 232 263 288 301 303 306 313 318 320 318 317 316 308 303 299 297 292 280 273 271 269 267 261 261 257 255 255 254 250 243 241 241 240 236 235 231 232 234
230 209 195 216 221 238 264 268 84 215 243 258 280 300 308 310 311 314 316 316 316 315 314 310 303 298 295 292 287 279 268 261 259 261 265 265 260 257 257 256 247 246 242 239 237 236 232 232 235